TimeHST,TemperatureF,Dew PointF,Humidity,Sea Level PressureIn,VisibilityMPH,Wind Direction,Wind SpeedMPH,Gust SpeedMPH,PrecipitationIn,Events,Conditions,WindDirDegrees,DateUTC
12:53 AM,70.0,57.9,65,30.09,10.0,SE,8.1,-,N/A,,Clear,130,2013-03-05 10:53:00
1:53 AM,70.0,60.1,71,30.07,10.0,East,6.9,-,N/A,,Clear,100,2013-03-05 11:53:00
2:53 AM,70.0,59.0,68,30.07,10.0,ENE,5.8,-,N/A,,Mostly Cloudy,60,2013-03-05 12:53:00
3:53 AM,69.1,59.0,70,30.06,10.0,North,4.6,-,N/A,,Mostly Cloudy,10,2013-03-05 13:53:00
4:53 AM,69.1,59.0,70,30.06,10.0,Calm,Calm,-,N/A,,Partly Cloudy,0,2013-03-05 14:53:00
5:53 AM,66.9,57.9,73,30.07,10.0,NE,4.6,-,N/A,,Clear,40,2013-03-05 15:53:00
6:53 AM,68.0,57.0,68,30.09,10.0,Calm,Calm,-,N/A,,Scattered Clouds,0,2013-03-05 16:53:00
7:53 AM,73.0,57.9,59,30.11,10.0,NNE,4.6,-,N/A,,Scattered Clouds,30,2013-03-05 17:53:00
8:53 AM,77.0,59.0,54,30.11,10.0,NNE,6.9,-,N/A,,Clear,30,2013-03-05 18:53:00
9:53 AM,77.0,57.0,50,30.12,10.0,West,3.5,-,N/A,,Clear,270,2013-03-05 19:53:00
10:53 AM,79.0,60.1,52,30.11,10.0,SSW,10.4,-,N/A,,Clear,210,2013-03-05 20:53:00
11:53 AM,81.0,57.9,45,30.09,10.0,SW,11.5,-,N/A,,Clear,220,2013-03-05 21:53:00
12:53 PM,80.1,62.1,54,30.05,10.0,WSW,10.4,-,N/A,,Clear,240,2013-03-05 22:53:00
1:53 PM,80.1,60.1,50,30.04,10.0,SW,10.4,-,N/A,,Mostly Cloudy,230,2013-03-05 23:53:00
2:53 PM,79.0,57.9,48,30.03,10.0,West,9.2,-,N/A,,Scattered Clouds,260,2013-03-06 00:53:00
3:53 PM,79.0,59.0,50,30.04,10.0,West,6.9,-,N/A,,Scattered Clouds,260,2013-03-06 01:53:00
4:53 PM,77.0,60.1,56,30.05,10.0,WSW,3.5,-,N/A,,Mostly Cloudy,240,2013-03-06 02:53:00
5:53 PM,77.0,59.0,54,30.06,10.0,WNW,5.8,-,N/A,,Scattered Clouds,290,2013-03-06 03:53:00
6:53 PM,75.9,57.9,54,30.08,10.0,WNW,3.5,-,N/A,,Mostly Cloudy,300,2013-03-06 04:53:00
7:53 PM,75.9,57.9,54,30.09,10.0,Calm,Calm,-,N/A,,Mostly Cloudy,0,2013-03-06 05:53:00
8:53 PM,75.0,57.0,53,30.11,10.0,Calm,Calm,-,N/A,,Partly Cloudy,0,2013-03-06 06:53:00
9:53 PM,75.0,57.9,55,30.11,10.0,Calm,Calm,-,N/A,,Scattered Clouds,0,2013-03-06 07:53:00
10:53 PM,72.0,55.9,57,30.11,10.0,Calm,Calm,-,N/A,,Clear,0,2013-03-06 08:53:00
11:53 PM,70.0,57.0,63,30.10,10.0,NNE,4.6,-,N/A,,Scattered Clouds,20,2013-03-06 09:53:00